This is the latest recevied weather packets stored in our database for station/object SR9NLI. If no packets are shown the sender has not sent any weather packets the latest 1 day(s).
| Time | Temp. | Humidity | Pressure | Rain* | Wind** | Luminosity | Snow |
|---|---|---|---|---|---|---|---|
| 1777984431 | 23.89° C | 100% | 950.5 hPa | - | 3.58 m/s, 168° | - | - |
| 1777984308 | 23.89° C | 100% | 950.5 hPa | - | 3.58 m/s, 169° | - | - |
| 1777984185 | 23.33° C | 100% | 950.4 hPa | - | 2.68 m/s, 167° | - | - |
| 1777984125 | 23.33° C | 100% | 950.5 hPa | - | 2.24 m/s, 170° | - | - |
| 1777984062 | 23.33° C | 100% | 950.6 hPa | - | 2.24 m/s, 179° | - | - |
| 1777983939 | 22.78° C | 100% | 950.6 hPa | - | 2.24 m/s, 175° | - | - |
| 1777983816 | 22.78° C | 100% | 950.7 hPa | - | 3.13 m/s, 170° | - | - |
| 1777983755 | 22.78° C | 100% | 950.6 hPa | - | 3.13 m/s, 169° | - | - |
| 1777983692 | 22.78° C | 100% | 950.6 hPa | - | 2.68 m/s, 173° | - | - |
| 1777983570 | 22.78° C | 100% | 950.7 hPa | - | 1.79 m/s, 183° | - | - |
| 1777983447 | 22.78° C | 100% | 950.7 hPa | - | 1.79 m/s, 196° | - | - |
| 1777983386 | 22.78° C | 100% | 950.8 hPa | - | 1.79 m/s, 200° | - | - |
| 1777983324 | 22.78° C | 100% | 950.8 hPa | - | 1.79 m/s, 208° | - | - |
| 1777983201 | 22.78° C | 100% | 950.7 hPa | - | 2.24 m/s, 187° | - | - |
| 1777983078 | 22.78° C | 100% | 950.9 hPa | - | 2.24 m/s, 183° | - | - |
| 1777983017 | 22.78° C | 100% | 950.9 hPa | - | 1.79 m/s, 171° | - | - |
| 1777982954 | 22.78° C | 100% | 950.8 hPa | - | 1.79 m/s, 181° | - | - |
| 1777982831 | 22.22° C | 100% | 950.8 hPa | - | 2.24 m/s, 172° | - | - |
| 1777982708 | 22.22° C | 100% | 950.9 hPa | - | 2.68 m/s, 168° | - | - |
| 1777982647 | 22.22° C | 100% | 950.8 hPa | - | 3.13 m/s, 169° | - | - |
| 1777982585 | 22.22° C | 100% | 951 hPa | - | 3.13 m/s, 170° | - | - |
| 1777982462 | 22.22° C | 100% | 950.8 hPa | - | 4.02 m/s, 172° | - | - |
| 1777982339 | 22.22° C | 100% | 950.9 hPa | - | 3.58 m/s, 172° | - | - |
| 1777982279 | 22.22° C | 100% | 951.1 hPa | - | 4.02 m/s, 173° | - | - |
| 1777982216 | 22.22° C | 100% | 951 hPa | - | 4.02 m/s, 170° | - | - |
* Rain since midnight (hover to see other rain measurements)
** Current wind speed in m/s (hover to see current wind gust speed)